Regional Weather Roundup
Issued by NWS Sioux Falls, SD

Home | Current Version | Previous Version | Text Only | Print | Product List | Glossary On
Versions: 1 2 3 4 5 6 7 8 9 10 11 12 13 14 15 16 17 18 19 20 21 22 23 24 25 26 27 28 29 30 31 32 33 34 35 36 37 38 39 40 41 42 43 44 45 46 47 48 49 50
000
ASUS43 KFSD 221910
RWRFSD

WEATHER ROUNDUP FOR SE SOUTH DAKOTA/SW MINNESOTA/NW IOWA
NATIONAL WEATHER SERVICE SIOUX FALLS SD
200 PM CDT FRI MAY 22 2015

NOTE: "FAIR" INDICATES FEW OR NO CLOUDS BELOW 12,000 FEET WITH NO
SIGNIFICANT WEATHER AND OR OBSTRUCTIONS TO VISIBILITY.


SDZ038>040-050-052>070-222000-
SOUTHEAST SOUTH DAKOTA

CITY           SKY/WX    TMP DP  RH WIND       PRES   REMARKS
BROOKINGS      MOSUNNY   72  34  25 E9        30.19F
CHAMBERLAIN    PTSUNNY   69  39  33 S22G30    30.16S
HURON          SUNNY     75  38  26 S9G20     30.16F
MADISON        FAIR      72  32  23 SE3       30.19F
MITCHELL       PTSUNNY   74  40  29 S10       30.17F
SIOUX FALLS    CLOUDY    72  40  31 VRB3      30.18F
WINNER         FAIR      68  37  32 SE18G24   30.16S
YANKTON        CLOUDY    72  39  30 S15G22    30.18S
$$

MNZ071-072-080-081-089-090-097-098-222000-
SOUTHWEST MINNESOTA

CITY           SKY/WX    TMP DP  RH WIND       PRES   REMARKS
FAIRMONT       SUNNY     72  30  21 SE6       30.21F
JACKSON        SUNNY     73  28  19 CALM      30.22S
LUVERNE        PTSUNNY   73  32  21 E7        30.20F
MARSHALL       SUNNY     73  34  23 S6        30.20F
MONTEVIDEO     SUNNY     73  30  20 CALM      30.21F
REDWOOD FALLS  SUNNY     75  32  20 MISG      30.20F
TRACY          SUNNY     73  35  25 CALM      30.21F
WINDOM         SUNNY     73  28  19 CALM      30.21F
WORTHINGTON    MOSUNNY   72  32  23 S8        30.21S
$$

IAZ001>003-012>014-020>022-031-032-NEZ013-014-SDZ071-222000-
NORTHWEST IOWA

CITY           SKY/WX    TMP DP  RH WIND       PRES   REMARKS
CHEROKEE       CLOUDY    73  39  29 CALM      30.20S
DENISON        CLOUDY    72  37  28 VRB6      30.19S
ESTHERVILLE    MOSUNNY   73  36  25 CALM      30.21F
LE MARS        CLOUDY    73  37  27 S5G12     30.20F
ORANGE CITY    CLOUDY    72  36  26 SE3       30.20S
SHELDON        PTSUNNY   73  32  21 VRB5      30.19F
SIOUX CITY     CLOUDY    73  39  29 S9        30.20F
SPENCER        MOSUNNY   73  38  27 SE7       30.20F
STORM LAKE     CLOUDY    73  34  23 VRB5G12   30.21F
$$

ABBREVIATIONS USED IN REMARKS
   TC - TEMPERATURE IN CELSIUS
  WCI - WIND CHILL INDEX
   HX - HEAT INDEX
  VSB - VISIBILITY




USA.gov is the U.S. government's official web portal to all federal, state and local government web resources and services.